Tracking 34348 objects as of 9-Jun-2026
HD Live streaming from Space Station
objects crossing your sky now

DELTA 1 DEB

Track DELTA 1 DEB now!
10-day predictions


NORAD ID: 7076
Int'l Code: 1973-086BU
Perigee: 1,503.7 km
Apogee: 1,524.9 km
Inclination: 102.3 °
Period: 116.1 minutes
Semi major axis: 7885 km
RCS: 0.1249 m2 (medium)
Launch date: November 6, 1973
Source: United States (US)
Launch site: AIR FORCE WESTERN TEST RANGE (AFWTR)

Note: This is SATELLITE DEBRIS
Your satellite tracking list
Your tracking list is empty




NASA's NSSDC Master Catalog

Two Line Element Set (TLE):
1  7076U 73086BU  26159.99825612 -.00000018  00000-0  21453-3 0  9997
2  7076 102.2981 161.0168 0013389  85.0987 341.4666 12.39867552379309
Source of the keplerian elements: AFSPC